Regional Weather Roundup
Issued by NWS Northern Indiana

Home | Current Version | Previous Version | Text Only | Print | Product List | Glossary Off
Versions: 1 2 3 4 5 6 7 8 9 10 11 12 13 14 15 16 17 18 19 20 21 22 23 24 25 26 27 28 29 30 31 32 33 34 35 36 37 38 39 40 41 42 43 44 45 46 47 48 49 50

000
ASUS43 KIWX 260710
RWRIWX

KIWX WEATHER ROUNDUP
NATIONAL WEATHER SERVICE NORTHERN INDIANA
200 AM EST WED NOV 26 2014

NOTE: "FAIR" INDICATES FEW OR NO CLOUDS BELOW 12,000 FEET WITH NO
SIGNIFICANT WEATHER AND/OR OBSTRUCTIONS TO VISIBILITY.

* THESE STATIONS ARE NOT UNDER NWS QUALITY CONTROL. THEY ALSO MAY NOT
  REPORT WEATHER SUCH AS PRECIPITATION OR FOG.

INZ001>027-260800-
NORTHERN INDIANA

CITY           SKY/WX    TMP DP  RH WIND       PRES   REMARKS
GARY*          CLOUDY    25  20  80 SE5       30.19S WCI  20
VALPARAISO     CLOUDY    22  18  85 SE5       30.17F WCI  16
MICHIGAN CITY* CLOUDY    25  18  74 S3        30.19F
LAPORTE*       CLOUDY    25  21  84 CALM      30.18F
KNOX*          CLOUDY    24  19  83 S3        30.17F
SOUTH BEND     CLOUDY    25  19  78 CALM      30.18F
GOSHEN         CLOUDY    25  19  78 S5        30.17F WCI  19
MONTICELLO*    CLOUDY    25  20  82 CALM      30.17F
LOGANSPORT*    CLOUDY    25  19  80 W3        30.17F
ROCHESTER*     CLOUDY    28  23  80 CALM      30.17F
WARSAW*        CLOUDY    25  19  80 CALM      30.17F
ANGOLA*        CLOUDY    25  12  58 CALM      30.16F
FORT WAYNE     CLOUDY    25  20  81 CALM      30.18F
HUNTINGTON*    CLOUDY    25  20  83 CALM      30.17S
PERU/GRISSOM   CLOUDY    25  23  95 NE3       30.16F
MARION*          N/A     25  21  84 NW3       30.17F

$$
INZ028>050-260800-
CENTRAL INDIANA

CITY           SKY/WX    TMP DP  RH WIND       PRES   REMARKS
LAFAYETTE      CLOUDY    25  19  78 N5        30.17F WCI  19
KOKOMO*        CLOUDY    25  18  74 E5        30.17S WCI  19
MUNCIE*        CLOUDY    27  22  81 NW6       30.15F WCI  20
INDIANAPOLIS   CLOUDY    26  20  77 CALM      30.15F

$$
MIZ043>046-050>051-056>058-064>065-071>073-077>080-260800-
SOUTHWEST LOWER MICHIGAN

CITY           SKY/WX    TMP DP  RH WIND       PRES   REMARKS
BATTLE CREEK   CLOUDY    28  19  69 S6        30.17F WCI  22
BENTON HARBOR  CLOUDY    24  18  77 SE5       30.19F WCI  18
COLDWATER*     CLOUDY    27  20  76 CALM      30.16F
HILLSDALE*     CLOUDY    26  21  80 CALM      30.14F
HOLLAND        CLOUDY    29  22  75 S8        30.17F WCI  21
GRAND RAPIDS   CLOUDY    28  22  78 S6        30.17F WCI  22
KALAMAZOO      CLOUDY    27  18  69 SW3       30.17F
STURGIS*       CLOUDY    25  19  80 SW3       30.16F
THREE RIVERS*  CLOUDY    27  20  76 CALM      30.17F

$$
OHZ001>008-015>018-024>025-260800-
NORTHWEST OHIO

CITY           SKY/WX    TMP DP  RH WIND       PRES   REMARKS
WAUSEON*       CLOUDY    27  21  80 CALM      30.18F
FINDLAY        CLOUDY    29  20  69 N5        30.15F WCI  24
TOLEDO EXPRESS CLOUDY    27  20  75 CALM      30.18F
TOLEDO METCALF CLOUDY    29  19  66 E3        30.19F
LIMA           CLOUDY    28  20  71 NE3       30.15F

$$
AND FOR LAKE MICHIGAN COASTAL AND OPEN LAKE BUOY OBSERVATIONS

STATION/POSITION TEMP    WIND        PRES    VSBY  WAVE
                 AIR SEA DIR/SP/G                  HT/PER
                 (F)     (DEG/KT/KT) (MB)    (MI)  (FT/S)
CALUMET HARBOR    23     150/  4/  5 1020.7R
MICHIGAN CITY     23     180/  7/  9   N/A
SAINT JOSEPH      25     160/  4/  5 1023.0R
SOUTH LAKE BUOY   29 42  220/ 12/ 17 1022.4F         2/ 3

$$
&&



USA.gov is the U.S. government's official web portal to all federal, state and local government web resources and services.